Tracking 18840 objects as of 18-November-2017
HD Live streaming from Space Station
objects crossing your sky now

FENGYUN 1C DEB

Track FENGYUN 1C DEB now!
10-day predictions


NORAD ID: 33649
Int'l Code: 1999-025DEJ
Perigee: 494.2 km
Apogee: 527.5 km
Inclination: 98.9 °
Period: 94.7 minutes
Semi major axis: 6881 km
RCS: 0.0153 m2 (small)
Launch date: May 10, 1999
Source: People's Republic of China (PRC)
Launch site: Taiyaun Space Center, China (TSC)

Note: This is SATELLITE DEBRIS
aabbcc
Your satellite tracking list
Your tracking list is empty




NASA's NSSDC Master Catalog

Two Line Element Set (TLE):
1 33649U 99025DEJ 17321.23797391  .00027218  00000-0  12288-2 0  9998
2 33649  98.9357 319.6607 0024187 117.9181 242.4503 15.20703972540432
Source of the keplerian elements: AFSPC